Location: Winthrop
(48.4780°N, 120.1850°W)
Time: 01:22:38
(UTC-07:00)

Transit 2A - Pass Details

Date: 17 June 2024
Orbit: 591 x 960 km, 66.7° (Epoch: 23 July)

Event Time Altitude Azimuth Distance (km) Brightness Sun altitude
Rises 03:10:43 0° 317° (NW) 3,531 9.7 -12.6°
Reaches altitude 10° 03:13:32 10° 306° (NW) 2,627 8.8 -12.3°
Maximum altitude 03:18:37 28° 251° (WSW) 1,718 7.4 -11.9°
Enters shadow 03:22:45 14° 202° (SSW) 2,381 7.9 -11.5°
